Tracking 23758 objects as of 28-Oct-2021
HD Live streaming from Space Station
objects crossing your sky now

SL-8 DEB

Track SL-8 DEB now!
10-day predictions


NORAD ID: 27746
Int'l Code: 1991-009DB
Perigee: 1,482.0 km
Apogee: 1,767.5 km
Inclination: 74.1 °
Period: 118.6 minutes
Semi major axis: 7995 km
RCS: 0.0277 m2 (small)
Launch date: February 12, 1991
Source: Commonwealth of Independent States (former USSR) (CIS)
Launch site: PLESETSK MISSILE AND SPACE COMPLEX (PKMTR)

Note: This is SATELLITE DEBRIS
aabbcc
Your satellite tracking list
Your tracking list is empty




NASA's NSSDC Master Catalog

Two Line Element Set (TLE):
1 27746U 91009DB  21300.57858979  .00000282  00000-0  29399-2 0  9995
2 27746  74.1060  11.0327 0178538 296.1360 129.3749 12.14269155358084
Source of the keplerian elements: AFSPC